Wetterdaten: aktuell Dienstag, 19.01.2021 00:20
Datum Zeit Temperatur Bodentemp. Luftfeuchte Luftdruck Niederschlag Windgeschw. Windrichtung Windrichtung Sonnenschein Nieder.dauer Evapotrans. Solarstrahl. Taupunkt Windchill Windböen
19.01.2021 00:20 4,1 °C 3,3 °C 100 % 1011,7 hPa 2,0 l/m² 7,2 km/h (2 Bft) W-SW 247 ° 0 min 60 min 0 mm 0 W/m² 4,1 °C 2,3 °C 16,1 km/h (3 Bft)
18.01.2021 23:20 4,0 °C 2,8 °C 100 % 1011,9 hPa 1,0 l/m² 1,8 km/h (1 Bft) W 270 ° 0 min 51 min 0 mm 0 W/m² 4,0 °C 4,0 °C 3,6 km/h (1 Bft)
18.01.2021 22:20 4,2 °C 3,3 °C 100 % 1011,9 hPa 0,2 l/m² 14,4 km/h (3 Bft) SW 225 ° 0 min 27 min 0 mm 0 W/m² 4,2 °C 0,9 °C 21,5 km/h (4 Bft)
18.01.2021 21:20 4,3 °C 3,3 °C 100 % 1012,0 hPa 0,4 l/m² 5,4 km/h (1 Bft) W 270 ° 0 min 48 min 0 mm 0 W/m² 4,3 °C 3,1 °C 12,6 km/h (3 Bft)
18.01.2021 20:20 4,3 °C 3,3 °C 100 % 1012,0 hPa 0,4 l/m² 5,4 km/h (1 Bft) S-SW 202 ° 0 min 34 min 0 mm 0 W/m² 4,3 °C 3,1 °C 7,2 km/h (2 Bft)
18.01.2021 19:20 4,3 °C 3,3 °C 100 % 1012,0 hPa 0,4 l/m² 9,0 km/h (2 Bft) SW 225 ° 0 min 45 min 0 mm 0 W/m² 4,3 °C 2,1 °C 14,4 km/h (3 Bft)
18.01.2021 18:20 4,3 °C 3,3 °C 100 % 1012,0 hPa 0,2 l/m² 7,2 km/h (2 Bft) W 270 ° 0 min 13 min 0 mm 0 W/m² 4,3 °C 2,5 °C 10,8 km/h (2 Bft)
18.01.2021 17:20 4,2 °C 3,3 °C 100 % 1012,2 hPa 0,2 l/m² 7,2 km/h (2 Bft) NW 315 ° 0 min 60 min 0 mm 0 W/m² 4,2 °C 2,4 °C 23,3 km/h (4 Bft)
18.01.2021 16:20 4,2 °C 3,3 °C 100 % 1012,3 hPa 0,6 l/m² 9,0 km/h (2 Bft) W-NW 292 ° 0 min 60 min 0 mm 7 W/m² 4,2 °C 1,9 °C 19,7 km/h (3 Bft)
18.01.2021 15:20 4,1 °C 3,3 °C 100 % 1012,5 hPa 1,4 l/m² 3,6 km/h (1 Bft) W 270 ° 0 min 60 min 0 mm 16 W/m² 4,1 °C 4,1 °C 9,0 km/h (2 Bft)
18.01.2021 14:20 3,8 °C 2,8 °C 100 % 1012,9 hPa 0,8 l/m² 7,2 km/h (2 Bft) S-SW 202 ° 0 min 60 min 0 mm 18 W/m² 3,8 °C 2,0 °C 12,6 km/h (3 Bft)
18.01.2021 13:20 3,2 °C 2,8 °C 100 % 1013,5 hPa 0,4 l/m² 12,6 km/h (3 Bft) SW 225 ° 0 min 60 min 0 mm 25 W/m² 3,2 °C -0,0 °C 17,9 km/h (3 Bft)
18.01.2021 12:20 2,7 °C 2,2 °C 100 % 1014,6 hPa 0,6 l/m² 12,6 km/h (3 Bft) S 180 ° 0 min 60 min 0 mm 33 W/m² 2,7 °C -0,6 °C 19,7 km/h (3 Bft)
18.01.2021 11:20 2,2 °C 1,7 °C 100 % 1015,7 hPa 0,2 l/m² 7,2 km/h (2 Bft) S-SW 202 ° 0 min 45 min 0 mm 53 W/m² 2,2 °C 0,1 °C 10,8 km/h (2 Bft)
18.01.2021 10:20 1,7 °C 1,1 °C 100 % 1016,2 hPa 0,0 l/m² 12,6 km/h (3 Bft) SW 225 ° 0 min 0 min 0 mm 32 W/m² 1,7 °C -1,9 °C 17,9 km/h (3 Bft)
18.01.2021 09:20 1,2 °C 0,6 °C 100 % 1016,7 hPa 0,0 l/m² 5,4 km/h (1 Bft) SW 225 ° 0 min 3 min 0 mm 28 W/m² 1,2 °C -0,4 °C 9,0 km/h (2 Bft)
18.01.2021 08:20 0,8 °C 0,6 °C 100 % 1017,0 hPa 0,2 l/m² 7,2 km/h (2 Bft) S-SW 202 ° 0 min 41 min 0 mm 0 W/m² 0,8 °C -1,5 °C 10,8 km/h (2 Bft)
18.01.2021 07:20 0,4 °C 0,0 °C 100 % 1016,8 hPa 0,0 l/m² 10,8 km/h (2 Bft) SW 225 ° 0 min 0 min 0 mm 0 W/m² 0,4 °C -3,0 °C 14,4 km/h (3 Bft)
18.01.2021 06:20 -0,1 °C 0,0 °C 99 % 1016,9 hPa 0,0 l/m² 7,2 km/h (2 Bft) SW 225 ° 0 min 0 min 0 mm 0 W/m² -0,2 °C -2,6 °C 10,8 km/h (2 Bft)
18.01.2021 05:20 -0,4 °C -0,6 °C 98 % 1017,2 hPa 0,0 l/m² 5,4 km/h (1 Bft) SW 225 ° 0 min 0 min 0 mm 0 W/m² -0,7 °C -2,2 °C 7,2 km/h (2 Bft)
18.01.2021 04:20 -0,6 °C -0,6 °C 96 % 1017,5 hPa 0,0 l/m² 7,2 km/h (2 Bft) SW 225 ° 0 min 0 min 0 mm 0 W/m² -1,2 °C -3,2 °C 9,0 km/h (2 Bft)
18.01.2021 03:20 -0,8 °C -1,1 °C 94 % 1017,7 hPa 0,0 l/m² 1,8 km/h (1 Bft) S-SW 202 ° 0 min 15 min 0 mm 0 W/m² -1,6 °C -0,8 °C 3,6 km/h (1 Bft)
18.01.2021 02:20 -0,8 °C -1,1 °C 91 % 1018,0 hPa 0,0 l/m² 0,0 km/h (0 Bft) S-SO 157 ° 0 min 0 min 0 mm 0 W/m² -2,1 °C -0,8 °C 1,8 km/h (1 Bft)
18.01.2021 01:20 -0,8 °C -1,1 °C 88 % 1018,3 hPa 0,0 l/m² 3,6 km/h (1 Bft) S-SO 157 ° 0 min 0 min 0 mm 0 W/m² -2,5 °C -0,8 °C 10,8 km/h (2 Bft)
18.01.2021 01:00 -0,8 °C -0,6 °C 87 % 1018,4 hPa 0,0 l/m² 3,6 km/h (1 Bft) S-SO 157 ° 0 min 0 min 0 mm 0 W/m² -2,7 °C -0,8 °C 7,2 km/h (2 Bft)
_ Min-Zeit 01:00 01:16 01:00 00:15 - 02:16 - - - - - - 01:00 01:41 01:07
Minimum _ -0,8 °C -1,1 °C 87 % 1011,7 hPa - 0,0 km/h (0 Bft) - - - - - - -2,7 °C -4,0 °C 1,8 km/h (1 Bft)
_ Max-Zeit 19:30 14:25 06:33 01:00 07:48 13:14 - - 01:00 02:40 12:00 11:20 19:34 18:11 22:35
Maximum _ 4,4 °C 3,3 °C 100 % 1018,4 hPa 0,2 l/m² 17,9 km/h
S-SW (3 Bft)
- - 0 min 1 min 0 mm 53 W/m² 4,4 °C 4,3 °C 28,7 km/h
S (4 Bft)
Durchschnitt _ 2,1 °C 1,6 °C 98 % 1014,8 hPa #9,0 l/m² 7,4 km/h (2 Bft) SW - #0 min. #21 min. #0,000 mm 0 W/m² 1,9 °C 0,3 °C 12,4 km/h (3 Bft)